Weather History for Harlan, KY

Change the Weather History Date:

Saturday, November 2, 2013

  Actual Average (KLOZ) Record (KLOZ)
Temperature  
Mean Temperature 50 °F 52 °F  
Max Temperature 59 °F 64 °F 81 °F (1961)
Min Temperature 41 °F 40 °F 23 °F (1963)
Degree Days  
Heating Degree Days 15 13  
Month to date heating degree days 26  
Since 1 July heating degree days 332  
Cooling Degree Days 0 0  
Month to date cooling degree days 0  
Year to date cooling degree days 1188  
Moisture  
Dew Point 39 °F    
Average Humidity 73    
Maximum Humidity 100    
Minimum Humidity 36    
Precipitation  
Precipitation 0.00 in 0.11 in 1.33 in (1966)
Month to date precipitation 0.23  
Year to date precipitation 39.30  
Sea Level Pressure  
Sea Level Pressure 29.91 in    
Wind  
Wind Speed 2 mph (West)    
Max Wind Speed 14 mph    
Max Gust Speed 23 mph    
Visibility 10 miles    
Events      
T = Trace of Precipitation, MM = Missing Value Source: NWS Daily Summary

Daily Weather History Graph

Daily Weather History Graph

Search for Another Location

Airport:

Trip Planner

Search our weather history database for the weather conditions in past years. The results will help you decide how hot, cold, wet, or windy it might be!

Date:

Astronomy

Nov. 02, 2013 Rise Set
Actual Time 7:58 AM EDT 6:34 PM EDT
Civil Twilight 7:31 AM EDT 7:01 PM EDT
Nautical Twilight 7:00 AM EDT 7:32 PM EDT
Astronomical Twilight 6:30 AM EDT 8:02 PM EDT
Moon 6:55 AM EDT (11/2) 6:05 PM EDT (11/2)
Length of Visible Light 11h 30m
Length of Day
10h 36m
Waning Crescent, 1% of the Moon is Illuminated
Nov 2
Waning Crescent
Nov 3
New
Nov 10
First Quarter
Nov 17
Full
Nov 25
Last Quarter

Hourly Weather History & Observations

Time (EDT) Temp. Windchill Dew Point Humidity Pressure Visibility Wind Dir Wind Speed Gust Speed Precip Events Conditions
12:15 AM 48.2 °F - 44.6 °F 87% 29.81 in 10.0 mi Calm Calm - N/A   Overcast
12:35 AM 46.4 °F - 44.6 °F 93% 29.81 in 10.0 mi Calm Calm - N/A   Overcast
12:55 AM 46.4 °F - 44.6 °F 93% 29.81 in 10.0 mi Calm Calm - N/A   Overcast
1:15 AM 46.4 °F - 44.6 °F 93% 29.81 in 10.0 mi Calm Calm - N/A   Mostly Cloudy
1:35 AM 46.4 °F - 44.6 °F 93% 29.81 in 10.0 mi Calm Calm - N/A   Scattered Clouds
1:55 AM 44.6 °F - 44.6 °F 100% 29.82 in 10.0 mi Calm Calm - N/A   Scattered Clouds
2:15 AM 46.4 °F - 44.6 °F 93% 29.82 in 10.0 mi Calm Calm - N/A   Mostly Cloudy
2:35 AM 46.4 °F - 44.6 °F 93% 29.82 in 10.0 mi Calm Calm - N/A   Mostly Cloudy
2:55 AM 46.4 °F - 44.6 °F 93% 29.82 in 10.0 mi Calm Calm - N/A   Overcast
3:15 AM 46.4 °F - 44.6 °F 93% 29.82 in 10.0 mi Calm Calm - N/A   Overcast
3:35 AM 46.4 °F 42.9 °F 44.6 °F 93% 29.82 in 10.0 mi NNE 6.9 mph - N/A   Mostly Cloudy
3:55 AM 46.4 °F 45.2 °F 44.6 °F 93% 29.82 in 10.0 mi NNE 3.5 mph - N/A   Scattered Clouds
4:15 AM 44.6 °F - 42.8 °F 93% 29.82 in 10.0 mi Calm Calm - N/A   Clear
4:35 AM 44.6 °F - 44.6 °F 100% 29.82 in 10.0 mi Calm Calm - N/A   Clear
4:55 AM 44.6 °F - 42.8 °F 93% 29.83 in 10.0 mi Calm Calm - N/A   Clear
5:15 AM 42.8 °F - 42.8 °F 100% 29.83 in 7.0 mi Calm Calm - N/A   Clear
5:35 AM 42.8 °F - 42.8 °F 100% 29.83 in 10.0 mi Calm Calm - N/A   Clear
5:55 AM 44.6 °F - 42.8 °F 93% 29.84 in 10.0 mi Calm Calm - N/A   Clear
6:15 AM 42.8 °F - 41.0 °F 93% 29.84 in 10.0 mi Calm Calm - N/A   Clear
6:35 AM 42.8 °F - 41.0 °F 93% 29.84 in 5.0 mi Calm Calm - N/A   Clear
6:55 AM 42.8 °F - 41.0 °F 93% 29.84 in 10.0 mi Calm Calm - N/A   Clear
7:15 AM 42.8 °F - 41.0 °F 93% 29.84 in 7.0 mi Calm Calm - N/A   Clear
7:35 AM 42.8 °F - 41.0 °F 93% 29.85 in 10.0 mi Calm Calm - N/A   Scattered Clouds
7:55 AM 41.0 °F - 41.0 °F 100% 29.86 in 7.0 mi Calm Calm - N/A   Clear
8:15 AM 42.8 °F 41.1 °F 41.0 °F 93% 29.87 in 10.0 mi North 3.5 mph - N/A   Mostly Cloudy
8:35 AM 42.8 °F - 42.8 °F 100% 29.87 in 10.0 mi Calm Calm - N/A   Overcast
8:55 AM 44.6 °F 41.4 °F 42.8 °F 93% 29.88 in 5.0 mi North 5.8 mph - N/A   Overcast
9:15 AM 44.6 °F - 44.6 °F 100% 29.88 in 0.8 mi Calm Calm - N/A   Overcast
9:35 AM 50.0 °F - 44.6 °F 82% 29.89 in 10.0 mi Calm Calm - N/A   Mostly Cloudy
9:55 AM 50.0 °F - 42.8 °F 76% 29.90 in 10.0 mi North - - N/A   Overcast
10:15 AM 50.0 °F - 42.8 °F 76% 29.91 in 10.0 mi Calm Calm - N/A   Overcast
10:35 AM 50.0 °F - 42.8 °F 76% 29.91 in 10.0 mi SW 3.5 mph - N/A   Overcast
10:55 AM 50.0 °F - 41.0 °F 71% 29.91 in 10.0 mi WSW 3.5 mph - N/A   Overcast
11:15 AM 51.8 °F - 41.0 °F 67% 29.91 in 10.0 mi South 4.6 mph - N/A   Overcast
11:35 AM 53.6 °F - 41.0 °F 62% 29.91 in 10.0 mi West 4.6 mph - N/A   Mostly Cloudy
11:55 AM 55.4 °F - 41.0 °F 58% 29.91 in 10.0 mi SW 4.6 mph - N/A   Mostly Cloudy
1:15 PM 53.6 °F - 35.6 °F 51% 29.90 in 10.0 mi NW 9.2 mph - N/A   Scattered Clouds
1:35 PM 55.4 °F - 35.6 °F 47% 29.90 in 10.0 mi WNW 10.4 mph 16.1 mph N/A   Mostly Cloudy
1:55 PM 57.2 °F - 35.6 °F 44% 29.89 in 10.0 mi WNW 9.2 mph 18.4 mph N/A   Mostly Cloudy
2:15 PM 55.4 °F - 35.6 °F 47% 29.90 in 10.0 mi NW 6.9 mph - N/A   Mostly Cloudy
2:35 PM 57.2 °F - 35.6 °F 44% 29.89 in 10.0 mi West 8.1 mph - N/A   Scattered Clouds
2:55 PM 55.4 °F - 33.8 °F 44% 29.90 in 10.0 mi West 11.5 mph 19.6 mph N/A   Scattered Clouds
3:15 PM 59.0 °F - 32.0 °F 36% 29.89 in 10.0 mi West 12.7 mph 20.7 mph N/A   Scattered Clouds
3:35 PM 55.4 °F - 32.0 °F 41% 29.89 in 10.0 mi West 10.4 mph 20.7 mph N/A   Mostly Cloudy
3:55 PM 55.4 °F - 32.0 °F 41% 29.90 in 10.0 mi West 6.9 mph - N/A   Scattered Clouds
4:15 PM 59.0 °F - 32.0 °F 36% 29.89 in 10.0 mi NW 10.4 mph 16.1 mph N/A   Scattered Clouds
4:35 PM 55.4 °F - 32.0 °F 41% 29.90 in 10.0 mi NW 13.8 mph 23.0 mph N/A   Scattered Clouds
4:55 PM 55.4 °F - 32.0 °F 41% 29.91 in 10.0 mi WNW 8.1 mph - N/A   Scattered Clouds
5:15 PM 55.4 °F - 32.0 °F 41% 29.91 in 10.0 mi West 6.9 mph - N/A   Clear
5:35 PM 53.6 °F - 33.8 °F 47% 29.92 in 10.0 mi North 10.4 mph 16.1 mph N/A   Scattered Clouds
5:55 PM 53.6 °F - 33.8 °F 47% 29.93 in 10.0 mi NW 4.6 mph - N/A   Mostly Cloudy
6:15 PM 51.8 °F - 32.0 °F 47% 29.94 in 10.0 mi West 6.9 mph - N/A   Scattered Clouds
6:35 PM 50.0 °F - 33.8 °F 54% 29.95 in 10.0 mi WSW 3.5 mph - N/A   Mostly Cloudy
6:55 PM 50.0 °F - 35.6 °F 58% 29.96 in 10.0 mi West 8.1 mph - N/A   Overcast
7:15 PM 50.0 °F - 35.6 °F 58% 29.97 in 10.0 mi Calm Calm - N/A   Scattered Clouds
7:35 PM 48.2 °F - 37.4 °F 66% 29.98 in 10.0 mi West 4.6 mph - N/A   Scattered Clouds
7:55 PM 48.2 °F - 37.4 °F 66% 29.99 in 10.0 mi WSW 4.6 mph - N/A   Overcast
8:15 PM 48.2 °F - 35.6 °F 62% 30.01 in 10.0 mi West 4.6 mph - N/A   Mostly Cloudy
8:35 PM 46.4 °F 45.2 °F 35.6 °F 66% 30.02 in 10.0 mi WSW 3.5 mph - N/A   Scattered Clouds
8:55 PM 48.2 °F - 35.6 °F 62% 30.02 in 10.0 mi West 5.8 mph - N/A   Mostly Cloudy
9:15 PM 48.2 °F - 35.6 °F 62% 30.03 in 10.0 mi West 4.6 mph - N/A   Overcast
9:35 PM 48.2 °F - 37.4 °F 66% 30.03 in 10.0 mi WSW 3.5 mph - N/A   Overcast
9:55 PM 46.4 °F 44.3 °F 37.4 °F 71% 30.04 in 10.0 mi SW 4.6 mph - N/A   Overcast
10:15 PM 46.4 °F 45.2 °F 37.4 °F 71% 30.05 in 10.0 mi WSW 3.5 mph - N/A   Overcast
10:35 PM 46.4 °F 45.2 °F 37.4 °F 71% 30.06 in 10.0 mi SW 3.5 mph - N/A   Overcast
10:55 PM 46.4 °F 45.2 °F 37.4 °F 71% 30.07 in 10.0 mi West 3.5 mph - N/A   Overcast
11:15 PM 46.4 °F 45.2 °F 37.4 °F 71% 30.08 in 10.0 mi WSW 3.5 mph - N/A   Overcast
11:35 PM 46.4 °F 44.3 °F 37.4 °F 71% 30.08 in 10.0 mi WSW 4.6 mph - N/A   Overcast
11:55 PM 46.4 °F 45.2 °F 37.4 °F 71% 30.09 in 10.0 mi WSW 3.5 mph - N/A   Overcast